[[{"header":{"parameterUnit":"m.s-1","parameterCategory":1,"la1":30.2991,"la2":30.254,"lo1":-89.0895,"lo2":-89.0444,"dy":0.0017,"dx":0.0017,"nx":28,"ny":28,"refTime":"2023-08-04T09:00:00:Z","depth":0,"parameterNumber":2,"parameterNumberName":"U-component_of_WINDS"},"data":[0,0,0,0,0,0,0,0,0,0,0,0,0,0,0,0,0,0,0,0,0,0,0,0,0,0,0,0,0,0,0,0,0,0,0,0,0,0,0,0,0,0,0,0,0,0,0,0,0,0,0,0,0,0,0,0,0,0,2.7186,2.7185,0,2.7143,2.7143,2.7142,2.7012,2.7009,2.7007,2.7004,2.6962,2.6963,2.6965,0,0,0,0,0,0,0,0,0,0,0,0,0,2.7155,2.7156,2.7186,2.7185,2.7185,2.7143,2.7142,2.7142,2.7013,2.7009,2.7006,2.7003,2.6961,2.6963,2.6965,0,0,0,0,0,0,0,0,0,0,0,0,0,2.7146,2.7157,2.7186,2.7115,2.7108,2.7143,2.7142,2.7142,2.7014,2.7009,2.7005,2.7001,2.6961,2.6963,2.6965,2.7065,0,0,2.6972,2.6973,0,0,0,0,0,0,0,0,2.7147,2.7147,2.7126,2.712,2.7113,2.7079,2.7116,2.7116,2.7015,2.705,2.7004,2.6999,2.7004,2.7003,2.7004,2.7063,2.7061,2.6972,2.6974,2.6975,2.6975,0,0,0,0,0,0,0,2.7147,2.7148,2.7169,2.7126,2.7118,2.7085,2.7079,2.7115,2.7052,2.7046,2.7037,2.7033,2.7,2.7002,2.7002,2.7061,2.6972,2.6974,2.6976,2.6977,2.7197,2.7201,0,0,0,0,0,0,2.7158,2.715,2.717,2.7168,2.7119,2.709,2.7083,2.7094,2.7051,2.704,2.7037,2.7028,2.7,2.7,2.7,2.7112,2.6975,2.6977,2.6978,2.7192,2.7198,2.7202,0,0,0,0,0,0,2.7158,2.7161,2.7172,2.7156,2.7155,2.7095,2.7108,2.7095,2.7098,2.7044,2.7032,2.7051,2.6997,2.6997,2.7049,2.7109,2.6978,2.698,2.7187,2.7194,2.72,2.7339,0,0,0,0,0,0,2.7158,2.7162,2.72,2.7158,2.7156,2.7222,2.7112,2.7098,2.7102,2.7089,2.7054,2.7044,2.6994,2.7046,2.7052,2.711,2.6982,2.7181,2.719,2.7198,2.7329,2.7349,2.7367,0,0,0,0,0,2.7157,2.7242,2.7202,2.7206,2.7202,2.7226,2.7225,2.7165,2.7107,2.7144,2.7109,2.7045,2.7102,2.7053,2.7057,2.7117,2.7177,2.7187,2.7197,2.732,2.7345,2.7367,0,0,0,0,0,0,2.7293,2.7235,2.7191,2.7264,2.7251,2.7204,2.7249,2.7194,2.7197,2.7185,2.711,2.7103,2.7166,2.7147,2.7093,2.721,2.7129,2.714,2.722,2.7244,2.7263,2.7266,2.6984,0,0,0,0,0,2.7332,2.7356,2.7304,2.7374,2.7369,2.7311,2.7319,2.7273,2.7256,2.725,2.7219,2.7206,2.722,2.7231,2.7242,2.7325,2.7315,2.7368,2.7388,2.7404,2.7414,2.7455,2.7477,2.7235,2.7235,2.7235,0,0,2.7412,2.7383,2.7403,2.74,2.7384,2.741,2.7307,2.734,2.7358,2.7255,2.7302,2.7279,2.7259,2.7327,2.7355,2.7313,2.7479,2.7417,2.743,2.7432,2.7467,2.749,2.7511,2.7242,2.7241,2.724,0,0,2.7571,2.7552,2.7607,2.7592,2.7569,2.7529,2.7543,2.7504,2.7484,2.7529,2.7452,2.7473,2.75,2.7488,2.7485,2.7637,2.7577,2.7642,2.7743,2.7783,2.7802,2.7819,2.7871,2.7891,2.7653,2.7654,2.7654,0,2.7673,2.7709,2.7642,2.7679,2.7679,2.7586,2.764,2.763,2.7612,2.7614,2.7567,2.7597,2.7577,2.7639,2.7676,2.7678,2.7689,2.7646,2.7805,2.7821,2.7835,2.7884,2.7904,2.7661,2.7661,2.766,2.7659,0,2.7835,2.7861,2.7908,2.7891,2.7897,2.7943,2.7882,2.7895,2.7849,2.7814,2.786,2.7833,2.7834,2.7846,2.7802,2.7902,2.7876,2.7818,2.7734,2.7867,2.7912,2.793,2.7673,2.767,2.7668,2.7666,0,0,2.808,2.8023,2.8041,2.8031,2.7998,2.8017,2.8057,2.8058,2.807,2.8061,2.8092,2.8116,2.8061,2.8058,2.8011,2.8047,2.8166,2.7984,2.7982,2.8017,2.8272,2.8315,2.8338,2.8127,2.813,2.8133,2.8273,0,2.8228,2.8293,2.8233,2.831,2.8332,2.8243,2.8278,2.8261,2.8229,2.8243,2.8208,2.8225,2.8153,2.815,2.8181,2.8145,2.8216,2.8134,2.8154,2.8156,2.8161,2.8361,2.8407,2.8541,2.829,2.8293,2.8295,0,2.841,2.8407,2.8486,2.8445,2.8452,2.8484,2.8478,2.8493,2.8472,2.8446,2.8442,2.8384,2.842,2.8339,2.8386,2.8332,2.8337,2.832,2.8324,2.8322,2.8233,2.8364,2.8582,2.8602,2.8322,2.832,2.8318,0,2.8578,2.8594,2.8642,2.8636,2.859,2.8615,2.8597,2.8571,2.8574,2.857,2.8571,2.8571,2.8571,2.8573,2.8516,2.8463,2.8571,2.8485,2.8549,2.8551,2.8575,2.8574,2.8796,2.8581,2.8581,2.858,2.858,0,2.8749,2.8801,2.8716,2.8746,2.88,2.873,2.8785,2.8758,2.8736,2.8758,2.8682,2.8705,2.8629,2.8644,2.86,2.8645,2.8646,2.8625,2.8613,2.8632,2.8634,2.8633,2.8622,2.8585,2.8584,2.8583,2.8582,0,2.8946,2.8892,2.8938,2.889,2.8878,2.892,2.8879,2.8904,2.8866,2.8895,2.8898,2.8839,2.8852,2.8796,2.88,2.877,2.8837,2.881,2.8844,2.8835,2.8902,2.8896,2.913,2.9156,2.8926,2.8928,2.893,0,2.9058,2.9095,2.905,2.9059,2.9044,2.906,2.9063,2.8995,2.9,2.8977,2.9005,2.9011,2.9012,2.9037,2.8995,2.8997,2.8968,2.905,2.8968,2.8984,2.8967,2.8965,2.8967,2.9067,2.9069,2.9072,2.9074,0,2.9263,2.9233,2.9239,2.9236,2.924,2.9235,2.9224,2.9235,2.9162,2.9172,2.9183,2.9184,2.9187,2.9194,2.9187,2.9167,2.9109,2.91,2.9114,2.9133,2.9151,2.914,2.8889,2.9095,2.9092,2.9091,2.909,2.9089,2.9419,2.9446,2.9418,2.9427,2.9411,2.9402,2.9422,2.9386,2.9395,2.939,2.935,2.9369,2.9344,2.9328,2.9315,2.9328,2.929,2.9312,2.9317,2.9323,2.9334,2.915,2.9327,2.9326,2.9326,2.9325,2.9325,0,2.9617,2.9594,2.9603,2.9589,2.9596,2.9538,2.9523,2.9532,2.9549,2.9531,2.9533,2.9545,2.9551,2.9509,2.9508,2.9527,2.95,2.953,2.9527,2.9523,2.9369,2.9355,2.9551,2.9551,2.9551,2.9551,2.9551,2.9551,2.9721,2.9764,2.9731,2.9765,2.9741,2.9758,2.9754,2.9745,2.9729,2.9746,2.975,2.9722,2.9693,2.969,2.9693,2.968,2.9683,2.9721,2.97,2.9556,2.9534,2.9513,2.95,2.9723,2.9723,2.9852,2.9853,2.9854]},{"header":{"parameterUnit":"m.s-1","parameterCategory":1,"la1":30.2991,"la2":30.254,"lo1":-89.0895,"lo2":-89.0444,"dy":0.0017,"dx":0.0017,"nx":28,"ny":28,"refTime":"2023-08-04T09:00:00:Z","depth":0,"parameterNumber":3,"parameterNumberName":"V-component_of_WINDS"},"data":[0,0,0,0,0,0,0,0,0,0,0,0,0,0,0,0,0,0,0,0,0,0,0,0,0,0,0,0,0,0,0,0,0,0,0,0,0,0,0,0,0,0,0,0,0,0,0,0,0,0,0,0,0,0,0,0,0,0,6.2063,6.2063,0,6.2109,6.211,6.211,6.2056,6.2054,6.2052,6.205,6.2092,6.2095,6.2098,0,0,0,0,0,0,0,0,0,0,0,0,0,6.1921,6.1924,6.2063,6.2063,6.2064,6.2109,6.211,6.211,6.2056,6.2054,6.2051,6.2049,6.2092,6.2095,6.2099,0,0,0,0,0,0,0,0,0,0,0,0,0,6.1976,6.1925,6.2062,6.2042,6.2041,6.2109,6.211,6.211,6.2057,6.2054,6.2051,6.2048,6.209,6.2095,6.2099,6.2187,0,0,6.2113,6.2115,0,0,0,0,0,0,0,0,6.1973,6.1981,6.2045,6.2044,6.2043,6.2074,6.2075,6.2136,6.2058,6.2051,6.205,6.2046,6.2088,6.2093,6.2108,6.2189,6.2191,6.2113,6.2116,6.2118,6.2119,0,0,0,0,0,0,0,6.1969,6.1979,6.2081,6.2046,6.2044,6.2029,6.2034,6.2086,6.2086,6.2051,6.2047,6.2054,6.2087,6.2104,6.2109,6.2192,6.2113,6.2117,6.212,6.2122,6.2345,6.2348,0,0,0,0,0,0,6.1969,6.1976,6.2079,6.2082,6.2,6.2034,6.2039,6.2067,6.2085,6.2085,6.2056,6.2051,6.2098,6.2103,6.211,6.2212,6.2118,6.2122,6.2125,6.2342,6.2345,6.2349,0,0,0,0,0,0,6.1966,6.1978,6.2077,6.2028,6.204,6.204,6.2071,6.2069,6.2086,6.2089,6.2088,6.2074,6.2095,6.2104,6.2168,6.2213,6.2124,6.2128,6.2338,6.2343,6.2347,6.2418,0,0,0,0,0,0,6.1962,6.1978,6.2013,6.203,6.2043,6.2137,6.2074,6.2072,6.2094,6.2088,6.2105,6.2105,6.2094,6.2162,6.2173,6.2217,6.2132,6.2334,6.234,6.2346,6.2412,6.2425,6.2436,0,0,0,0,0,6.1957,6.203,6.2015,6.2028,6.2087,6.214,6.2147,6.2134,6.2098,6.2132,6.2134,6.2105,6.2207,6.2169,6.2181,6.2227,6.2331,6.2338,6.2345,6.2407,6.2423,6.2436,0,0,0,0,0,0,6.2017,6.2032,6.2015,6.2097,6.2117,6.2131,6.2173,6.2151,6.2181,6.2174,6.2155,6.2159,6.2227,6.2234,6.2192,6.2312,6.2263,6.2273,6.2305,6.232,6.2332,6.2328,6.2136,0,0,0,0,0,6.204,6.2084,6.2094,6.2165,6.2176,6.2173,6.2196,6.2184,6.2204,6.2212,6.2218,6.2238,6.2274,6.2298,6.2331,6.2414,6.2415,6.2451,6.2463,6.2473,6.2481,6.2522,6.2538,6.2373,6.2373,6.2373,0,0,6.2088,6.2101,6.213,6.2177,6.2192,6.2235,6.2181,6.2229,6.226,6.2219,6.228,6.2286,6.2305,6.2379,6.2411,6.2386,6.2528,6.2483,6.2491,6.2493,6.2532,6.2547,6.2561,6.2378,6.2377,6.2376,0,0,6.2195,6.2212,6.2271,6.2287,6.2311,6.2308,6.2322,6.2339,6.2341,6.2403,6.2372,6.2408,6.2471,6.2486,6.2502,6.2615,6.2588,6.2626,6.2688,6.2729,6.2742,6.2753,6.2791,6.2805,6.2635,6.2635,6.2635,0,6.2251,6.2317,6.2304,6.2355,6.2375,6.2341,6.2399,6.2415,6.2448,6.2462,6.2434,6.2512,6.2523,6.2598,6.2625,6.264,6.2653,6.2623,6.2741,6.2753,6.2763,6.2798,6.2813,6.2639,6.2639,6.2638,6.2638,0,6.2382,6.2428,6.2473,6.2506,6.2532,6.2586,6.258,6.2607,6.2593,6.2592,6.2654,6.2667,6.2701,6.2718,6.2705,6.2791,6.2774,6.2745,6.2694,6.2783,6.2816,6.283,6.2645,6.2644,6.2642,6.2641,0,0,6.2528,6.2554,6.257,6.2584,6.2607,6.2641,6.2693,6.2728,6.2751,6.2775,6.2815,6.287,6.2842,6.286,6.2848,6.2884,6.2969,6.2849,6.2849,6.2868,6.3061,6.3081,6.3097,6.2952,6.2955,6.2957,6.3058,0,6.2634,6.2725,6.2714,6.28,6.2841,6.2809,6.2854,6.2872,6.2873,6.2906,6.2906,6.2944,6.2906,6.2916,6.2951,6.2951,6.3007,6.2944,6.2987,6.2989,6.2981,6.3115,6.3137,6.3232,6.3071,6.3074,6.3075,0,6.2769,6.2799,6.2889,6.2905,6.2921,6.2962,6.2992,6.3025,6.3044,6.3042,6.3062,6.3043,6.3092,6.3043,6.3109,6.3067,6.3084,6.3087,6.309,6.3091,6.3036,6.3117,6.3262,6.3276,6.3096,6.3094,6.3093,0,6.2863,6.2925,6.2987,6.3,6.302,6.3049,6.3058,6.3075,6.3096,6.3122,6.3135,6.3166,6.3183,6.3207,6.3196,6.3161,6.3263,6.3213,6.326,6.326,6.3281,6.3279,6.3428,6.3297,6.3297,6.3297,6.3296,0,6.2981,6.3036,6.3029,6.3066,6.3127,6.3114,6.3174,6.3179,6.3194,6.323,6.3205,6.3239,6.3224,6.3257,6.3249,6.3303,6.3311,6.3309,6.3306,6.331,6.331,6.3319,6.3311,6.33,6.3299,6.3299,6.3298,0,6.3094,6.3092,6.3156,6.3171,6.3175,6.3219,6.323,6.3264,6.3264,6.331,6.332,6.3318,6.3355,6.3347,6.3388,6.3382,6.345,6.344,6.3444,6.344,6.3487,6.3481,6.3644,6.3664,6.3523,6.3524,6.3525,0,6.3168,6.3211,6.3229,6.3253,6.3264,6.3302,6.3324,6.3312,6.3335,6.3359,6.339,6.3425,6.3452,6.3513,6.3513,6.3544,6.3532,6.3588,6.3537,6.3539,6.353,6.3526,6.3529,6.3597,6.3598,6.36,6.3601,0,6.3299,6.3295,6.3328,6.3361,6.3388,6.3412,6.3434,6.3454,6.3444,6.3471,6.3509,6.353,6.3572,6.3606,6.3634,6.3642,6.3619,6.3617,6.3629,6.3632,6.3632,6.363,6.3468,6.3613,6.3611,6.3611,6.361,6.3609,6.3393,6.3428,6.3446,6.3483,6.3499,6.352,6.3552,6.3556,6.3588,6.3621,6.3612,6.3655,6.3671,6.3706,6.3717,6.3749,6.3728,6.3746,6.375,6.3754,6.3758,6.3629,6.3754,6.3754,6.3754,6.3753,6.3753,0,6.3519,6.353,6.3564,6.3596,6.3624,6.3603,6.3626,6.365,6.3688,6.3706,6.3734,6.3776,6.3809,6.3813,6.3844,6.3868,6.3858,6.3876,6.3873,6.3874,6.3777,6.3762,6.3884,6.3884,6.3884,6.3884,6.3884,6.3883,6.3588,6.3646,6.3644,6.3708,6.3718,6.376,6.3775,6.3793,6.3807,6.3856,6.3884,6.3887,6.3898,6.3929,6.3958,6.3958,6.3969,6.3991,6.3986,6.3895,6.3881,6.3869,6.3855,6.3994,6.3994,6.4081,6.4081,6.4082]}]]